Weather History for Madison, MN

Change the Weather History Date:

Sunday, March 2, 2014

  Actual Average (KAQP) Record (KAQP)
Temperature  
Mean Temperature 2 °F -  
Max Temperature 12 °F 24 °F 35 °F (1999)
Min Temperature -7 °F 9 °F -14 °F (2003)
Degree Days  
Heating Degree Days 62    
Moisture  
Dew Point -11 °F    
Average Humidity 56    
Maximum Humidity 78    
Minimum Humidity 38    
Precipitation  
Precipitation 0.00 in - - ()
Sea Level Pressure  
Sea Level Pressure 30.55 in    
Wind  
Wind Speed 9 mph (NW)    
Max Wind Speed 16 mph    
Max Gust Speed 21 mph    
Visibility 10 miles    
Events      
Averages and records for this station are not official NWS values.
T = Trace of Precipitation, MM = Missing Value Source: NWS Daily Summary

Daily Weather History Graph

Daily Weather History Graph

Search for Another Location

Airport:

Trip Planner

Search our weather history database for the weather conditions in past years. The results will help you decide how hot, cold, wet, or windy it might be!

Date:

Astronomy

Mar. 02, 2014 Rise Set
Actual Time 7:00 AM CST 6:13 PM CST
Civil Twilight 6:31 AM CST 6:43 PM CST
Nautical Twilight 5:57 AM CST 7:17 PM CST
Astronomical Twilight 5:23 AM CST 7:51 PM CST
Moon 7:27 AM CST (3/2) 8:18 PM CST (3/2)
Length of Visible Light 12h 11m
Length of Day
11h 12m
Waxing Crescent, 3% of the Moon is Illuminated
Mar 2
Waxing Crescent
Mar 8
First Quarter
Mar 16
Full
Mar 23
Last Quarter
Mar 30
New

Hourly Weather History & Observations

Time (CST) Temp. Windchill Dew Point Humidity Pressure Visibility Wind Dir Wind Speed Gust Speed Precip Events Conditions
12:13 AM -5.8 °F -25.2 °F -16.6 °F 60% 30.57 in 10.0 mi NNW 12.7 mph - N/A   Clear
12:34 AM -5.8 °F -22.4 °F -16.6 °F 60% 30.57 in 10.0 mi NNW 9.2 mph - N/A   Clear
12:53 AM -7.6 °F -23.4 °F -16.6 °F 65% 30.58 in 10.0 mi NW 8.1 mph - N/A   Clear
1:14 AM -5.8 °F -22.4 °F -16.6 °F 60% 30.59 in 10.0 mi NW 9.2 mph - N/A   Clear
1:34 AM -5.8 °F -24.4 °F -16.6 °F 60% 30.59 in 10.0 mi NW 11.5 mph - N/A   Clear
1:53 AM -5.8 °F -19.9 °F -16.6 °F 60% 30.59 in 10.0 mi NW 6.9 mph - N/A   Clear
2:14 AM -5.8 °F -23.4 °F -16.6 °F 60% 30.58 in 10.0 mi NW 10.4 mph - N/A   Clear
2:34 AM -5.8 °F -21.2 °F -16.6 °F 60% 30.57 in 10.0 mi NNW 8.1 mph - N/A   Clear
2:53 AM -5.8 °F -19.9 °F -16.6 °F 60% 30.56 in 10.0 mi NNW 6.9 mph - N/A   Clear
3:14 AM -5.8 °F -19.9 °F -16.6 °F 60% 30.56 in 10.0 mi NW 6.9 mph - N/A   Clear
3:33 AM -7.6 °F -20.6 °F -16.6 °F 65% 30.56 in 10.0 mi NW 5.8 mph - N/A   Clear
3:53 AM -7.6 °F -18.8 °F -16.6 °F 65% 30.56 in 10.0 mi WNW 4.6 mph - N/A   Clear
4:14 AM -7.6 °F -20.6 °F -16.6 °F 65% 30.57 in 10.0 mi WNW 5.8 mph - N/A   Clear
4:34 AM -7.6 °F -18.8 °F -16.6 °F 65% 30.57 in 10.0 mi WNW 4.6 mph - N/A   Clear
4:53 AM -7.6 °F -18.8 °F -16.6 °F 65% 30.56 in 10.0 mi WNW 4.6 mph - N/A   Clear
5:14 AM -7.6 °F -18.8 °F -16.6 °F 65% 30.57 in 10.0 mi West 4.6 mph - N/A   Clear
5:34 AM -7.6 °F -20.6 °F -16.6 °F 65% 30.58 in 10.0 mi West 5.8 mph - N/A   Clear
5:53 AM -7.6 °F -18.8 °F -16.6 °F 65% 30.58 in 10.0 mi West 4.6 mph - N/A   Clear
6:14 AM -7.6 °F -20.6 °F -16.6 °F 65% 30.58 in 10.0 mi West 5.8 mph - N/A   Clear
6:34 AM -7.6 °F -22.1 °F -16.6 °F 65% 30.58 in 10.0 mi West 6.9 mph - N/A   Clear
6:53 AM -7.6 °F -23.4 °F -16.6 °F 65% 30.59 in 10.0 mi West 8.1 mph - N/A   Clear
7:14 AM -7.6 °F -22.1 °F -16.6 °F 65% 30.58 in 10.0 mi West 6.9 mph - N/A   Clear
7:33 AM -7.6 °F -22.1 °F -16.6 °F 65% 30.58 in 10.0 mi West 6.9 mph - N/A   Clear
7:54 AM -5.8 °F -21.2 °F -16.6 °F 60% 30.58 in 10.0 mi West 8.1 mph - N/A   Clear
8:14 AM -5.8 °F -24.4 °F -16.6 °F 60% 30.57 in 10.0 mi WNW 11.5 mph - N/A   Clear
8:33 AM -4.0 °F -23.7 °F -14.8 °F 60% 30.57 in 10.0 mi NW 13.8 mph - N/A   Clear
8:54 AM -2.2 °F -21.5 °F -14.8 °F 55% 30.57 in 10.0 mi NW 13.8 mph - N/A   Clear
9:14 AM -2.2 °F -21.5 °F -14.8 °F 55% 30.57 in 10.0 mi NW 13.8 mph - N/A   Clear
9:33 AM -0.4 °F -19.9 °F -14.8 °F 51% 30.57 in 10.0 mi NW 15.0 mph - N/A   Clear
9:54 AM -0.4 °F -19.2 °F -13.0 °F 55% 30.56 in 10.0 mi NW 13.8 mph - N/A   Clear
10:14 AM 1.4 °F -18.2 °F -13.0 °F 51% 30.55 in 10.0 mi NW 16.1 mph - N/A   Clear
10:33 AM 1.4 °F -14.5 °F -13.0 °F 51% 30.56 in 10.0 mi NW 10.4 mph 19.6 mph N/A   Clear
10:54 AM 3.2 °F -13.9 °F -11.2 °F 51% 30.56 in 10.0 mi NNW 12.7 mph - N/A   Clear
11:14 AM 3.2 °F -13.9 °F -11.2 °F 51% 30.56 in 10.0 mi NNW 12.7 mph 17.3 mph N/A   Clear
11:33 AM 5.0 °F -12.3 °F -11.2 °F 47% 30.56 in 10.0 mi NNW 13.8 mph 19.6 mph N/A   Clear
11:54 AM 6.8 °F -10.0 °F -11.2 °F 44% 30.56 in 10.0 mi NNW 13.8 mph - N/A   Clear
12:14 PM 6.8 °F -10.0 °F -11.2 °F 44% 30.56 in 10.0 mi NNW 13.8 mph 17.3 mph N/A   Clear
12:33 PM 8.6 °F -7.0 °F -11.2 °F 40% 30.56 in 10.0 mi NNW 12.7 mph 19.6 mph N/A   Clear
12:54 PM 8.6 °F -7.7 °F -9.4 °F 44% 30.55 in 10.0 mi NNW 13.8 mph - N/A   Clear
1:14 PM 10.4 °F -4.8 °F -9.4 °F 41% 30.54 in 10.0 mi NNW 12.7 mph - N/A   Clear
1:33 PM 10.4 °F -4.8 °F -9.4 °F 41% 30.53 in 10.0 mi NNW 12.7 mph 17.3 mph N/A   Clear
1:54 PM 10.4 °F -4.8 °F -9.4 °F 41% 30.52 in 10.0 mi North 12.7 mph 16.1 mph N/A   Clear
2:14 PM 10.4 °F -6.6 °F -9.4 °F 41% 30.51 in 10.0 mi NNW 16.1 mph - N/A   Clear
2:33 PM 10.4 °F -4.1 °F -7.6 °F 44% 30.51 in 10.0 mi NW 11.5 mph 18.4 mph N/A   Clear
2:54 PM 12.2 °F -3.1 °F -7.6 °F 41% 30.51 in 10.0 mi NW 13.8 mph - N/A   Clear
3:14 PM 12.2 °F -4.3 °F -7.6 °F 41% 30.52 in 10.0 mi NNW 16.1 mph - N/A   Clear
3:33 PM 12.2 °F -3.1 °F -7.6 °F 41% 30.52 in 10.0 mi NNW 13.8 mph 20.7 mph N/A   Clear
3:54 PM 12.2 °F -3.1 °F -7.6 °F 41% 30.52 in 10.0 mi NW 13.8 mph 19.6 mph N/A   Clear
4:14 PM 12.2 °F -1.0 °F -9.4 °F 38% 30.52 in 10.0 mi NW 10.4 mph - N/A   Clear
4:33 PM 12.2 °F -3.1 °F -7.6 °F 41% 30.52 in 10.0 mi NNW 13.8 mph - N/A   Clear
4:54 PM 12.2 °F -2.5 °F -9.4 °F 38% 30.52 in 10.0 mi NW 12.7 mph - N/A   Clear
5:14 PM 12.2 °F -0.2 °F -7.6 °F 41% 30.52 in 10.0 mi NW 9.2 mph - N/A   Clear
5:33 PM 12.2 °F -0.2 °F -7.6 °F 41% 30.51 in 10.0 mi NNW 9.2 mph - N/A   Clear
5:54 PM 10.4 °F -1.5 °F -7.6 °F 44% 30.50 in 10.0 mi WNW 8.1 mph - N/A   Clear
6:14 PM 10.4 °F -0.4 °F -7.6 °F 44% 30.50 in 10.0 mi WNW 6.9 mph - N/A   Clear
6:33 PM 10.4 °F -0.4 °F -7.6 °F 44% 30.50 in 10.0 mi WNW 6.9 mph - N/A   Clear
6:54 PM 8.6 °F -3.7 °F -7.6 °F 48% 30.51 in 10.0 mi WNW 8.1 mph - N/A   Clear
7:14 PM 6.8 °F -3.5 °F -5.8 °F 56% 30.51 in 10.0 mi West 5.8 mph - N/A   Clear
7:33 PM 6.8 °F -3.5 °F -5.8 °F 56% 30.51 in 10.0 mi West 5.8 mph - N/A   Clear
7:54 PM 5.0 °F -4.1 °F -7.6 °F 56% 30.51 in 10.0 mi WNW 4.6 mph - N/A   Clear
8:14 PM 5.0 °F -5.6 °F -7.6 °F 56% 30.51 in 10.0 mi WNW 5.8 mph - N/A   Clear
8:33 PM 5.0 °F -5.6 °F -5.8 °F 61% 30.51 in 10.0 mi West 5.8 mph - N/A   Clear
8:54 PM 3.2 °F -9.1 °F -5.8 °F 66% 30.51 in 10.0 mi WNW 6.9 mph - N/A   Clear
9:14 PM 3.2 °F -6.2 °F -5.8 °F 66% 30.52 in 10.0 mi North 4.6 mph - N/A   Clear
9:33 PM 3.2 °F -4.2 °F -5.8 °F 66% 30.52 in 10.0 mi North 3.5 mph - N/A   Clear
9:54 PM 3.2 °F - -5.8 °F 66% 30.52 in 10.0 mi Calm Calm - N/A   Clear
10:13 PM 3.2 °F - -5.8 °F 66% 30.52 in 10.0 mi Calm Calm - N/A   Mostly Cloudy
10:34 PM 3.2 °F - -4.0 °F 72% 30.52 in 10.0 mi Calm Calm - N/A   Overcast
10:54 PM 3.2 °F - -2.2 °F 78% 30.52 in 10.0 mi Calm Calm - N/A   Overcast
11:13 PM 5.0 °F - -2.2 °F 72% 30.52 in 10.0 mi Calm Calm - N/A   Overcast
11:34 PM 5.0 °F - -2.2 °F 72% 30.51 in 10.0 mi Calm Calm - N/A   Overcast
11:54 PM 5.0 °F - -2.2 °F 72% 30.52 in 10.0 mi Calm Calm - N/A   Overcast